THEOS

Last updated on Mon Jun 22 2026 00:02:51 GMT+0000 (Coordinated Universal Time)

1 33396U 08049A 26172.47803064 .00000318 00000+0 16891-3 0 9994 2 33396 98.5565 229.6229 0001189 81.1049 279.0262 14.20135036918571
UTC large
Height (km)
Speed (km/s)
/
Latitude / Longitude
Inclination (degrees)
Orbital Period (minutes)
Azimuth
Elevation
Range (km)
Doppler Factor

Next 0 passes for location: London (51.5072 / 0.1276)

No passes found over London.
THEOS